Location: St. Louis
(38.6270°N, 90.1994°W)
Time: 20:28:31
(UTC-06:00)

Vanguard 2 - Pass Details

Date: 02 December 2021
Orbit: 553 x 2936 km, 32.9° (Epoch: 21 January)

Event Time Altitude Azimuth Distance (km) Brightness Sun altitude
Rises 13:28:41 0° 235° (SW) 2,871 11.4 25.1°
Reaches altitude 10° 13:30:49 10° 226° (SW) 2,097 11.2 24.9°
Maximum altitude 13:35:11 36° 159° (SSE) 1,301 9.6 24.5°
Drops below altitude 10° 13:41:36 10° 95° (E) 3,102 10.5 23.9°
Sets 13:45:25 0° 88° (E) 4,480 11.2 23.6°
